Retour au catalogue

N1-ATLAS

ActifScienceSSO
NORAD 68501·PAYLOAD·🇺🇸 United States

Lancé Mar 30, 2026 depuis Vandenberg Space Force Base

Loading…

Prochains Passages (prochaines 24 heures)

TLE

FraisSource: Space-Track

Époque: Sep 14, 2026, 19:51 UTC

1 68501U 26067CP  26257.82729272  .00001654  00000-0  16978-3 0  9992
2 68501  97.7729 214.7323 0004904  87.9969 272.1811 14.91739262 25081

Suivez N1-ATLAS en temps réel avec AllMySat

Download on the App Store